• In Hungary
  • List of Countries
  • For 7 days
  • Water Temperature
  • Satellite Maps
  • Weather Map
  • News
  • Weather Widgets
  • user-avatar
    Login

    Hourly Weather Mszana

    Today, 20 October, Friday

    Time Temperature Precipitation Wind Pressure Humidity
    00:00 +11°C° 0 mm 1 mps 741 mmHg 89%
    01:00 +11°C° 0 mm 1 mps 741 mmHg 90%
    02:00 +11°C° 0 mm 1 mps 741 mmHg 90%
    03:00 +11°C° 0 mm 1 mps 741 mmHg 90%
    04:00 +11°C° 0 mm 1 mps 741 mmHg 90%
    05:00 +11°C° 0 mm 1 mps 741 mmHg 90%
    06:00 +11°C° 0 mm 1 mps 741 mmHg 89%
    07:00 +11°C° 0 mm 1 mps 741 mmHg 88%
    08:00 +13°C° 0 mm 1 mps 741 mmHg 80%
    09:00 +15°C° 0 mm 1 mps 741 mmHg 71%
    10:00 +18°C° 0 mm 1 mps 742 mmHg 63%
    11:00 +19°C° 0 mm 1 mps 741 mmHg 58%
    12:00 +20°C° 0 mm 1 mps 741 mmHg 54%
    13:00 +21°C° 0 mm 1 mps 741 mmHg 49%
    14:00 +20°C° 0 mm 1 mps 741 mmHg 53%
    15:00 +20°C° 0 mm 1 mps 741 mmHg 57%
    16:00 +19°C° 0 mm 1 mps 741 mmHg 61%
    17:00 +18°C° 0 mm 1 mps 741 mmHg 65%
    18:00 +15°C° 0 mm 1 mps 741 mmHg 68%
    19:00 +14°C° 0 mm 2 mps 741 mmHg 72%
    20:00 +14°C° 0 mm 2 mps 741 mmHg 74%
    21:00 +13°C° 0 mm 2 mps 741 mmHg 75%
    22:00 +13°C° 0 mm 2 mps 742 mmHg 77%
    23:00 +13°C° 0 mm 2 mps 742 mmHg 78%

    Tomorrow, 21 October, Saturday

    Time Temperature Precipitation Wind Pressure Humidity
    00:00 +12°C° 0 mm 2 mps 741 mmHg 79%
    01:00 +12°C° 0 mm 2 mps 741 mmHg 80%
    02:00 +12°C° 0 mm 2 mps 741 mmHg 80%
    03:00 +12°C° 0 mm 2 mps 741 mmHg 80%
    04:00 +12°C° 0 mm 2 mps 741 mmHg 81%
    05:00 +12°C° 0 mm 2 mps 741 mmHg 81%
    06:00 +12°C° 0 mm 2 mps 741 mmHg 81%
    07:00 +12°C° 0 mm 2 mps 741 mmHg 81%
    08:00 +13°C° 0 mm 2 mps 741 mmHg 78%
    09:00 +14°C° 0 mm 2 mps 741 mmHg 75%
    10:00 +16°C° 0 mm 3 mps 741 mmHg 72%
    11:00 +16°C° 0 mm 3 mps 741 mmHg 70%
    12:00 +16°C° 0 mm 3 mps 741 mmHg 68%
    13:00 +17°C° 0 mm 3 mps 741 mmHg 66%
    14:00 +16°C° 0 mm 2 mps 741 mmHg 68%
    15:00 +16°C° 0 mm 2 mps 741 mmHg 70%
    16:00 +16°C° 0 mm 1 mps 740 mmHg 72%
    17:00 +15°C° 0 mm 1 mps 741 mmHg 75%
    18:00 +14°C° 0 mm 1 mps 741 mmHg 77%
    19:00 +12°C° 0 mm 0 mps 741 mmHg 80%
    20:00 +12°C° 0 mm 0 mps 741 mmHg 82%
    21:00 +12°C° 0 mm 1 mps 741 mmHg 83%
    22:00 +12°C° 0 mm 1 mps 741 mmHg 85%
    23:00 +12°C° 0 mm 1 mps 741 mmHg 86%

    Day after tomorrow, 22 October, Sunday

    Time Temperature Precipitation Wind Pressure Humidity
    00:00 +11°C° 0 mm 1 mps 741 mmHg 87%
    01:00 +11°C° 0 mm 1 mps 741 mmHg 89%
    02:00 +11°C° 0 mm 1 mps 740 mmHg 89%
    03:00 +11°C° 0 mm 1 mps 740 mmHg 90%
    04:00 +11°C° 0 mm 1 mps 740 mmHg 91%
    05:00 +11°C° 0 mm 1 mps 740 mmHg 91%
    06:00 +10°C° 0 mm 2 mps 740 mmHg 91%
    07:00 +10°C° 0 mm 2 mps 739 mmHg 91%
    08:00 +12°C° 0.3 mm 2 mps 740 mmHg 88%
    09:00 +13°C° 0.3 mm 2 mps 740 mmHg 84%
    10:00 +13°C° 0.3 mm 3 mps 740 mmHg 81%
    11:00 +12°C° 1.1 mm 3 mps 740 mmHg 84%
    12:00 +11°C° 1.1 mm 3 mps 740 mmHg 87%
    13:00 +10°C° 1.1 mm 3 mps 739 mmHg 90%
    14:00 +10°C° 0.4 mm 3 mps 739 mmHg 90%
    15:00 +10°C° 0.4 mm 2 mps 739 mmHg 91%
    16:00 +10°C° 0.4 mm 2 mps 739 mmHg 91%
    17:00 +10°C° 0.3 mm 2 mps 739 mmHg 91%
    18:00 +10°C° 0.3 mm 2 mps 739 mmHg 92%
    19:00 +9°C° 0.3 mm 2 mps 739 mmHg 92%
    20:00 +9°C° 0.5 mm 2 mps 739 mmHg 92%
    21:00 +10°C° 0.5 mm 1 mps 739 mmHg 93%
    22:00 +10°C° 0.5 mm 1 mps 739 mmHg 93%
    23:00 +9°C° 1.2 mm 2 mps 739 mmHg 94%

    23 October, Monday

    Time Temperature Precipitation Wind Pressure Humidity
    00:00 +9°C° 1.2 mm 2 mps 739 mmHg 94%
    01:00 +9°C° 1.2 mm 2 mps 738 mmHg 94%
    02:00 +9°C° 1.1 mm 3 mps 738 mmHg 94%
    03:00 +8°C° 1.1 mm 3 mps 738 mmHg 93%
    04:00 +8°C° 1.1 mm 3 mps 738 mmHg 92%
    05:00 +8°C° 0.4 mm 3 mps 738 mmHg 91%
    06:00 +8°C° 0.4 mm 3 mps 738 mmHg 91%
    07:00 +8°C° 0.4 mm 3 mps 737 mmHg 91%
    08:00 +8°C° 0.3 mm 3 mps 738 mmHg 88%
    09:00 +8°C° 0.3 mm 3 mps 738 mmHg 86%
    10:00 +8°C° 0.3 mm 4 mps 738 mmHg 84%
    11:00 +8°C° 0.2 mm 4 mps 738 mmHg 83%
    12:00 +8°C° 0.2 mm 4 mps 738 mmHg 81%
    13:00 +8°C° 0.2 mm 4 mps 738 mmHg 80%
    14:00 +9°C° 0.2 mm 3 mps 738 mmHg 81%
    15:00 +9°C° 0.2 mm 3 mps 738 mmHg 82%
    16:00 +9°C° 0.2 mm 2 mps 738 mmHg 83%
    17:00 +9°C° 0.1 mm 2 mps 738 mmHg 85%
    18:00 +8°C° 0.1 mm 2 mps 738 mmHg 87%
    19:00 +8°C° 0.1 mm 2 mps 738 mmHg 89%
    20:00 +8°C° 0 mm 2 mps 738 mmHg 90%
    21:00 +7°C° 0 mm 2 mps 738 mmHg 91%
    22:00 +7°C° 0 mm 2 mps 738 mmHg 92%
    23:00 +7°C° 0 mm 2 mps 739 mmHg 92%

    24 October, Tuesday

    Time Temperature Precipitation Wind Pressure Humidity
    00:00 +7°C° 0 mm 2 mps 739 mmHg 93%
    01:00 +6°C° 0 mm 2 mps 739 mmHg 93%
    02:00 +6°C° 0 mm 2 mps 739 mmHg 93%
    03:00 +6°C° 0 mm 2 mps 739 mmHg 93%
    04:00 +6°C° 0 mm 2 mps 739 mmHg 94%
    05:00 +6°C° 0 mm 2 mps 740 mmHg 94%
    06:00 +6°C° 0 mm 2 mps 740 mmHg 94%
    07:00 +6°C° 0 mm 2 mps 740 mmHg 94%
    08:00 +7°C° 0 mm 2 mps 741 mmHg 90%
    09:00 +8°C° 0 mm 3 mps 741 mmHg 87%
    10:00 +9°C° 0 mm 3 mps 742 mmHg 83%
    11:00 +9°C° 0 mm 3 mps 742 mmHg 82%
    12:00 +10°C° 0 mm 3 mps 743 mmHg 81%
    13:00 +10°C° 0 mm 3 mps 743 mmHg 79%
    14:00 +10°C° 0.1 mm 3 mps 743 mmHg 81%
    15:00 +10°C° 0.1 mm 3 mps 744 mmHg 83%
    16:00 +9°C° 0.1 mm 3 mps 744 mmHg 85%
    17:00 +9°C° 0.1 mm 3 mps 745 mmHg 87%
    18:00 +9°C° 0.1 mm 3 mps 745 mmHg 89%
    19:00 +8°C° 0.1 mm 3 mps 746 mmHg 91%
    20:00 +8°C° 0 mm 2 mps 746 mmHg 92%
    21:00 +7°C° 0 mm 2 mps 747 mmHg 93%
    22:00 +7°C° 0 mm 2 mps 747 mmHg 94%
    23:00 +8°C° 0 mm 1 mps 747 mmHg 95%

    25 October, Wednesday

    Time Temperature Precipitation Wind Pressure Humidity
    00:00 +8°C° 0 mm 1 mps 748 mmHg 95%
    01:00 +7°C° 0 mm 1 mps 748 mmHg 95%
    02:00 +7°C° 0 mm 1 mps 748 mmHg 95%
    03:00 +7°C° 0 mm 1 mps 748 mmHg 95%
    04:00 +6°C° 0 mm 1 mps 748 mmHg 95%
    05:00 +6°C° 0 mm 1 mps 748 mmHg 95%
    06:00 +6°C° 0 mm 1 mps 748 mmHg 95%
    07:00 +6°C° 0 mm 1 mps 749 mmHg 94%
    08:00 +8°C° 0 mm 1 mps 749 mmHg 88%
    09:00 +9°C° 0 mm 1 mps 749 mmHg 82%
    10:00 +10°C° 0 mm 1 mps 749 mmHg 76%
    11:00 +11°C° 0 mm 1 mps 749 mmHg 71%
    12:00 +12°C° 0 mm 1 mps 749 mmHg 66%
    13:00 +13°C° 0 mm 1 mps 748 mmHg 62%
    14:00 +13°C° 0 mm 1 mps 748 mmHg 65%
    15:00 +12°C° 0 mm 1 mps 748 mmHg 67%
    16:00 +12°C° 0 mm 1 mps 748 mmHg 70%
    17:00 +11°C° 0 mm 1 mps 748 mmHg 73%
    18:00 +10°C° 0 mm 1 mps 749 mmHg 75%
    19:00 +9°C° 0 mm 1 mps 749 mmHg 78%
    20:00 +9°C° 0 mm 1 mps 749 mmHg 77%
    21:00 +9°C° 0 mm 1 mps 749 mmHg 76%
    22:00 +9°C° 0 mm 1 mps 749 mmHg 75%
    23:00 +9°C° 0 mm 1 mps 749 mmHg 74%
    Show more